| time (UTC) | temp F | wind direction | speed MPH | gust MPH | rain 1hr in | rain 24hr in | rain mn in | humidity % | barometer mb |
| 20260507012653 | 73 | 282 | 5.0 | 11.0 | 0.00 | 0.00 | 0.00 | 13 | 1016.6 |
| 20260507011641 | 74 | 30 | 5.0 | 11.0 | 0.00 | 0.00 | 0.00 | 13 | 1016.6 |
| 20260507011128 | 74 | 323 | 5.0 | 11.0 | 0.00 | 0.00 | 0.00 | 12 | 1016.5 |
| 20260507010621 | 74 | 295 | 3.0 | 11.0 | 0.00 | 0.00 | 0.00 | 12 | 1016.5 |
| 20260507010119 | 74 | 249 | 4.0 | 10.0 | 0.00 | 0.00 | 0.00 | 11 | 1016.5 |
| 20260507005621 | 74 | 339 | 5.0 | 10.0 | 0.00 | 0.00 | 0.00 | 12 | 1016.6 |
| 20260507005126 | 74 | 314 | 4.0 | 10.0 | 0.00 | 0.00 | 0.00 | 11 | 1016.6 |
| 20260507003616 | 75 | 286 | 5.0 | 9.0 | 0.00 | 0.00 | 0.00 | 10 | 1016.6 |
| 20260507003116 | 75 | 329 | 4.0 | 9.0 | 0.00 | 0.00 | 0.00 | 10 | 1016.5 |
| 20260507002616 | 75 | 314 | 4.0 | 9.0 | 0.00 | 0.00 | 0.00 | 10 | 1016.5 |
| 20260507002112 | 75 | 309 | 4.0 | 9.0 | 0.00 | 0.00 | 0.00 | 10 | 1016.4 |
| 20260507001616 | 75 | 247 | 5.0 | 11.0 | 0.00 | 0.00 | 0.00 | 10 | 1016.4 |
| 20260507001114 | 75 | 281 | 4.0 | 11.0 | 0.00 | 0.00 | 0.00 | 10 | 1016.2 |
| 20260507000610 | 75 | 296 | 4.0 | 9.0 | 0.00 | 0.00 | 0.00 | 10 | 1016.4 |
| 20260507000112 | 75 | 35 | 5.0 | 12.0 | 0.00 | 0.00 | 0.00 | 10 | 1016.2 |
| 20260506235111 | 75 | 315 | 5.0 | 14.0 | 0.00 | 0.00 | 0.00 | 11 | 1016.1 |
| 20260506234616 | 75 | 29 | 5.0 | 14.0 | 0.00 | 0.00 | 0.00 | 10 | 1016.0 |
| 20260506233612 | 76 | 261 | 3.0 | 9.0 | 0.00 | 0.00 | 0.00 | 11 | 1016.2 |
| 20260506233110 | 75 | 280 | 4.0 | 12.0 | 0.00 | 0.00 | 0.00 | 11 | 1016.1 |
| 20260506232610 | 75 | 146 | 5.0 | 12.0 | 0.00 | 0.00 | 0.00 | 12 | 1016.2 |
| 20260506232110 | 75 | 340 | 4.0 | 13.0 | 0.00 | 0.00 | 0.00 | 12 | 1016.2 |
| 20260506231610 | 74 | 22 | 5.0 | 13.0 | 0.00 | 0.00 | 0.00 | 12 | 1016.4 |
| 20260506231112 | 74 | 308 | 4.0 | 10.0 | 0.00 | 0.00 | 0.00 | 12 | 1016.5 |
| 20260506230606 | 74 | 355 | 5.0 | 10.0 | 0.00 | 0.00 | 0.00 | 12 | 1016.5 |
| 20260506230106 | 74 | 352 | 6.0 | 15.0 | 0.00 | 0.00 | 0.00 | 13 | 1016.5 |
| 20260506225606 | 74 | 35 | 6.0 | 15.0 | 0.00 | 0.00 | 0.00 | 13 | 1016.6 |
| 20260506225109 | 74 | 345 | 5.0 | 11.0 | 0.00 | 0.00 | 0.00 | 13 | 1016.6 |
| 20260506224611 | 74 | 311 | 5.0 | 10.0 | 0.00 | 0.00 | 0.00 | 13 | 1016.7 |
| 20260506224110 | 74 | 252 | 3.0 | 11.0 | 0.00 | 0.00 | 0.00 | 13 | 1016.6 |
| 20260506223609 | 74 | 323 | 4.0 | 13.0 | 0.00 | 0.00 | 0.00 | 13 | 1016.7 |
| 20260506222610 | 74 | 308 | 4.0 | 11.0 | 0.00 | 0.00 | 0.00 | 13 | 1016.8 |
| 20260506222108 | 74 | 37 | 3.0 | 11.0 | 0.00 | 0.00 | 0.00 | 13 | 1016.8 |
| 20260506221606 | 73 | 89 | 4.0 | 10.0 | 0.00 | 0.00 | 0.00 | 13 | 1016.8 |
| 20260506221108 | 74 | 32 | 4.0 | 11.0 | 0.00 | 0.00 | 0.00 | 14 | 1016.9 |
| 20260506220607 | 73 | 295 | 5.0 | 11.0 | 0.00 | 0.00 | 0.00 | 14 | 1017.0 |
| 20260506220107 | 73 | 314 | 5.0 | 16.0 | 0.00 | 0.00 | 0.00 | 15 | 1017.2 |
| 20260506215606 | 73 | 265 | 6.0 | 16.0 | 0.00 | 0.00 | 0.00 | 14 | 1017.3 |
| 20260506215110 | 73 | 291 | 6.0 | 15.0 | 0.00 | 0.00 | 0.00 | 15 | 1017.3 |
| 20260506214603 | 73 | 27 | 6.0 | 13.0 | 0.00 | 0.00 | 0.00 | 14 | 1017.4 |
| 20260506214102 | 73 | 300 | 6.0 | 14.0 | 0.00 | 0.00 | 0.00 | 15 | 1017.4 |
| 20260506213600 | 73 | 311 | 5.0 | 14.0 | 0.00 | 0.00 | 0.00 | 15 | 1017.4 |
| 20260506212601 | 73 | 30 | 5.0 | 12.0 | 0.00 | 0.00 | 0.00 | 14 | 1017.5 |
| 20260506212100 | 73 | 313 | 6.0 | 12.0 | 0.00 | 0.00 | 0.00 | 14 | 1017.5 |
| 20260506211559 | 73 | 316 | 4.0 | 12.0 | 0.00 | 0.00 | 0.00 | 14 | 1017.6 |
| 20260506211100 | 72 | 304 | 5.0 | 13.0 | 0.00 | 0.00 | 0.00 | 16 | 1017.5 |
| 20260506210600 | 72 | 215 | 5.0 | 13.0 | 0.00 | 0.00 | 0.00 | 15 | 1017.5 |
| 20260506210101 | 72 | 242 | 4.0 | 10.0 | 0.00 | 0.00 | 0.00 | 15 | 1017.5 |
| 20260506205559 | 71 | 292 | 4.0 | 9.0 | 0.00 | 0.00 | 0.00 | 15 | 1017.6 |
| 20260506205059 | 71 | 252 | 3.0 | 9.0 | 0.00 | 0.00 | 0.00 | 16 | 1017.6 |
| 20260506204050 | 72 | 354 | 3.0 | 9.0 | 0.00 | 0.00 | 0.00 | 15 | 1017.7 |
| 20260506203545 | 71 | 39 | 4.0 | 10.0 | 0.00 | 0.00 | 0.00 | 16 | 1017.7 |
| 20260506203044 | 72 | 295 | 4.0 | 10.0 | 0.00 | 0.00 | 0.00 | 15 | 1017.8 |
| 20260506202041 | 71 | 74 | 5.0 | 10.0 | 0.00 | 0.00 | 0.00 | 16 | 1017.7 |
| 20260506201539 | 71 | 317 | 4.0 | 12.0 | 0.00 | 0.00 | 0.00 | 17 | 1017.7 |
| 20260506201039 | 71 | 14 | 3.0 | 12.0 | 0.00 | 0.00 | 0.00 | 16 | 1017.8 |
| 20260506200545 | 71 | 36 | 3.0 | 13.0 | 0.00 | 0.00 | 0.00 | 16 | 1018.0 |
| 20260506195535 | 70 | 301 | 4.0 | 11.0 | 0.00 | 0.00 | 0.00 | 17 | 1018.1 |
| 20260506195036 | 70 | 302 | 4.0 | 14.0 | 0.00 | 0.00 | 0.00 | 17 | 1018.1 |
| 20260506194034 | 69 | 324 | 5.0 | 14.0 | 0.00 | 0.00 | 0.00 | 18 | 1018.1 |
| 20260506193534 | 69 | 252 | 4.0 | 10.0 | 0.00 | 0.00 | 0.00 | 18 | 1018.2 |
| 20260506193034 | 70 | 217 | 3.0 | 10.0 | 0.00 | 0.00 | 0.00 | 17 | 1018.2 |
| 20260506192033 | 69 | 309 | 4.0 | 13.0 | 0.00 | 0.00 | 0.00 | 19 | 1018.2 |
| 20260506191035 | 69 | 326 | 4.0 | 9.0 | 0.00 | 0.00 | 0.00 | 18 | 1018.3 |
| 20260506190531 | 69 | 333 | 3.0 | 8.0 | 0.00 | 0.00 | 0.00 | 18 | 1018.3 |
| 20260506185530 | 68 | 286 | 5.0 | 12.0 | 0.00 | 0.00 | 0.00 | 19 | 1018.4 |
| 20260506185031 | 68 | 333 | 4.0 | 10.0 | 0.00 | 0.00 | 0.00 | 18 | 1018.3 |
| 20260506184528 | 68 | 26 | 4.0 | 10.0 | 0.00 | 0.00 | 0.00 | 19 | 1018.4 |
| 20260506184029 | 67 | 307 | 5.0 | 12.0 | 0.00 | 0.00 | 0.00 | 19 | 1018.5 |
| 20260506183025 | 68 | 317 | 3.0 | 9.0 | 0.00 | 0.00 | 0.00 | 19 | 1018.4 |
| 20260506182024 | 67 | 310 | 4.0 | 10.0 | 0.00 | 0.00 | 0.00 | 20 | 1018.5 |
| 20260506181524 | 67 | 268 | 2.0 | 10.0 | 0.00 | 0.00 | 0.00 | 19 | 1018.5 |
| 20260506181022 | 67 | 193 | 3.0 | 10.0 | 0.00 | 0.00 | 0.00 | 20 | 1018.5 |
| 20260506180521 | 66 | 143 | 4.0 | 10.0 | 0.00 | 0.00 | 0.00 | 20 | 1018.6 |
| 20260506180021 | 66 | 311 | 4.0 | 9.0 | 0.00 | 0.00 | 0.00 | 20 | 1018.5 |
| 20260506175524 | 66 | 293 | 3.0 | 8.0 | 0.00 | 0.00 | 0.00 | 20 | 1018.5 |
| 20260506174526 | 65 | 287 | 3.0 | 9.0 | 0.00 | 0.00 | 0.00 | 21 | 1018.5 |
| 20260506174021 | 65 | 289 | 2.0 | 9.0 | 0.00 | 0.00 | 0.00 | 21 | 1018.6 |
| 20260506173516 | 65 | 18 | 3.0 | 9.0 | 0.00 | 0.00 | 0.00 | 21 | 1018.5 |
| 20260506173010 | 65 | 192 | 4.0 | 9.0 | 0.00 | 0.00 | 0.00 | 21 | 1018.6 |
| 20260506172505 | 65 | 229 | 4.0 | 12.0 | 0.00 | 0.00 | 0.00 | 21 | 1018.5 |
| 20260506171955 | 66 | 273 | 3.0 | 15.0 | 0.00 | 0.00 | 0.00 | 20 | 1018.5 |
| 20260506171453 | 65 | 216 | 3.0 | 15.0 | 0.00 | 0.00 | 0.00 | 21 | 1018.4 |
| 20260506170945 | 65 | 324 | 3.0 | 8.0 | 0.00 | 0.00 | 0.00 | 21 | 1018.4 |
| 20260506170440 | 65 | 231 | 2.0 | 8.0 | 0.00 | 0.00 | 0.00 | 22 | 1018.3 |
| 20260506165935 | 65 | 284 | 2.0 | 8.0 | 0.00 | 0.00 | 0.00 | 21 | 1018.3 |
| 20260506165426 | 64 | 319 | 2.0 | 8.0 | 0.00 | 0.00 | 0.00 | 23 | 1018.3 |
| 20260506164920 | 64 | 140 | 3.0 | 8.0 | 0.00 | 0.00 | 0.00 | 23 | 1018.3 |
| 20260506164414 | 65 | 319 | 2.0 | 7.0 | 0.00 | 0.00 | 0.00 | 22 | 1018.3 |
| 20260506163911 | 65 | 291 | 1.0 | 7.0 | 0.00 | 0.00 | 0.00 | 22 | 1018.3 |
| 20260506163403 | 65 | 284 | 2.0 | 6.0 | 0.00 | 0.00 | 0.00 | 22 | 1018.2 |
| 20260506162856 | 64 | 230 | 2.0 | 7.0 | 0.00 | 0.00 | 0.00 | 23 | 1018.2 |
| 20260506162350 | 64 | 328 | 2.0 | 7.0 | 0.00 | 0.00 | 0.00 | 23 | 1018.2 |
| 20260506161847 | 63 | 263 | 2.0 | 8.0 | 0.00 | 0.00 | 0.00 | 24 | 1018.2 |
| 20260506161338 | 63 | 273 | 3.0 | 8.0 | 0.00 | 0.00 | 0.00 | 23 | 1018.2 |
| 20260506160832 | 62 | 241 | 3.0 | 8.0 | 0.00 | 0.00 | 0.00 | 25 | 1018.2 |
| 20260506160325 | 62 | 207 | 3.0 | 8.0 | 0.00 | 0.00 | 0.00 | 25 | 1018.2 |
| 20260506155827 | 62 | 243 | 3.0 | 8.0 | 0.00 | 0.00 | 0.00 | 26 | 1018.1 |
| 20260506155314 | 61 | 292 | 3.0 | 8.0 | 0.00 | 0.00 | 0.00 | 27 | 1018.1 |
| 20260506154808 | 61 | 315 | 3.0 | 9.0 | 0.00 | 0.00 | 0.00 | 27 | 1018.1 |
| 20260506154302 | 61 | 274 | 3.0 | 10.0 | 0.00 | 0.00 | 0.00 | 27 | 1018.1 |
| 20260506153250 | 60 | 289 | 5.0 | 13.0 | 0.00 | 0.00 | 0.00 | 28 | 1018.1 |
| 20260506152744 | 60 | 214 | 5.0 | 13.0 | 0.00 | 0.00 | 0.00 | 28 | 1018.0 |
| 20260506152238 | 60 | 266 | 4.0 | 12.0 | 0.00 | 0.00 | 0.00 | 28 | 1018.0 |
| 20260506151732 | 59 | 263 | 3.0 | 12.0 | 0.00 | 0.00 | 0.00 | 28 | 1018.0 |
| 20260506151228 | 59 | 252 | 3.0 | 8.0 | 0.00 | 0.00 | 0.00 | 28 | 1018.0 |
| 20260506150219 | 60 | 301 | 2.0 | 7.0 | 0.00 | 0.00 | 0.00 | 29 | 1017.8 |
| 20260506145711 | 59 | 259 | 4.0 | 11.0 | 0.00 | 0.00 | 0.00 | 29 | 1017.8 |
| 20260506145202 | 59 | 136 | 5.0 | 11.0 | 0.00 | 0.00 | 0.00 | 30 | 1017.7 |
| 20260506143704 | 59 | 136 | 3.0 | 13.0 | 0.00 | 0.00 | 0.00 | 30 | 1017.5 |
| 20260506143203 | 58 | 226 | 4.0 | 13.0 | 0.00 | 0.00 | 0.00 | 31 | 1017.6 |
| 20260506142657 | 58 | 184 | 5.0 | 12.0 | 0.00 | 0.00 | 0.00 | 31 | 1017.5 |
| 20260506142158 | 58 | 248 | 4.0 | 12.0 | 0.00 | 0.00 | 0.00 | 31 | 1017.5 |
| 20260506141657 | 57 | 174 | 3.0 | 8.0 | 0.00 | 0.00 | 0.00 | 31 | 1017.5 |
| 20260506141158 | 57 | 224 | 5.0 | 14.0 | 0.00 | 0.00 | 0.00 | 32 | 1017.5 |
| 20260506140657 | 56 | 188 | 6.0 | 14.0 | 0.00 | 0.00 | 0.00 | 33 | 1017.3 |
| 20260506140203 | 56 | 142 | 5.0 | 11.0 | 0.00 | 0.00 | 0.00 | 33 | 1017.3 |
| 20260506135158 | 55 | 110 | 2.0 | 9.0 | 0.00 | 0.00 | 0.00 | 35 | 1017.0 |
| 20260506134157 | 53 | 189 | 2.0 | 5.0 | 0.00 | 0.00 | 0.00 | 36 | 1017.2 |
| 20260506133700 | 53 | 156 | 2.0 | 7.0 | 0.00 | 0.00 | 0.00 | 37 | 1017.0 |
| 20260506133152 | 52 | 192 | 4.0 | 7.0 | 0.00 | 0.00 | 0.00 | 38 | 1016.9 |
| 20260506132647 | 51 | 188 | 3.0 | 7.0 | 0.00 | 0.00 | 0.00 | 39 | 1016.8 |
| 20260506131637 | 51 | 162 | 2.0 | 6.0 | 0.00 | 0.00 | 0.00 | 39 | 1016.8 |
| 20260506130635 | 49 | 173 | 0.0 | 0.0 | 0.00 | 0.00 | 0.00 | 38 | 1016.7 |
| 20260506130135 | 49 | 167 | 0.0 | 4.0 | 0.00 | 0.00 | 0.00 | 38 | 1016.6 |
| 20260506125132 | 50 | 199 | 3.0 | 7.0 | 0.00 | 0.00 | 0.00 | 39 | 1016.4 |
| 20260506124131 | 50 | 105 | 3.0 | 9.0 | 0.00 | 0.00 | 0.00 | 38 | 1016.2 |
| 20260506123635 | 50 | 160 | 3.0 | 7.0 | 0.00 | 0.00 | 0.00 | 38 | 1016.1 |
| 20260506122633 | 51 | 182 | 2.0 | 6.0 | 0.00 | 0.00 | 0.00 | 36 | 1016.1 |
| 20260506122127 | 51 | 156 | 2.0 | 5.0 | 0.00 | 0.00 | 0.00 | 36 | 1016.1 |
| 20260506121628 | 51 | 204 | 3.0 | 6.0 | 0.00 | 0.00 | 0.00 | 35 | 1016.0 |
| 20260506121130 | 51 | 169 | 3.0 | 6.0 | 0.00 | 0.00 | 0.00 | 35 | 1016.1 |
| 20260506120630 | 52 | 148 | 3.0 | 9.0 | 0.00 | 0.00 | 0.00 | 35 | 1016.1 |
| 20260506115626 | 52 | 172 | 3.0 | 8.0 | 0.00 | 0.00 | 0.00 | 34 | 1016.1 |
| 20260506115131 | 52 | 159 | 4.0 | 9.0 | 0.00 | 0.00 | 0.00 | 34 | 1016.1 |
| 20260506114628 | 52 | 150 | 4.0 | 9.0 | 0.00 | 0.00 | 0.00 | 34 | 1016.1 |
| 20260506114130 | 52 | 200 | 3.0 | 8.0 | 0.00 | 0.00 | 0.00 | 34 | 1016.1 |
| 20260506113630 | 52 | 141 | 3.0 | 8.0 | 0.00 | 0.00 | 0.00 | 34 | 1016.1 |
| 20260506113131 | 52 | 157 | 2.0 | 8.0 | 0.00 | 0.00 | 0.00 | 34 | 1016.0 |
| 20260506112127 | 52 | 181 | 3.0 | 8.0 | 0.00 | 0.00 | 0.00 | 34 | 1015.9 |
| 20260506111628 | 52 | 111 | 2.0 | 8.0 | 0.00 | 0.00 | 0.00 | 33 | 1016.0 |
| 20260506111127 | 52 | 131 | 2.0 | 12.0 | 0.00 | 0.00 | 0.00 | 33 | 1015.9 |
| 20260506110627 | 52 | 165 | 3.0 | 12.0 | 0.00 | 0.00 | 0.00 | 33 | 1015.8 |
| 20260506110131 | 52 | 153 | 3.0 | 10.0 | 0.00 | 0.00 | 0.00 | 33 | 1015.8 |
| 20260506105627 | 52 | 115 | 2.0 | 7.0 | 0.00 | 0.00 | 0.00 | 33 | 1015.8 |
| 20260506105126 | 52 | 114 | 2.0 | 7.0 | 0.00 | 0.00 | 0.00 | 33 | 1015.8 |
| 20260506104634 | 52 | 158 | 1.0 | 3.0 | 0.00 | 0.00 | 0.00 | 33 | 1015.7 |
| 20260506104127 | 52 | 95 | 1.0 | 4.0 | 0.00 | 0.00 | 0.00 | 33 | 1015.7 |
| 20260506103626 | 52 | 49 | 1.0 | 4.0 | 0.00 | 0.00 | 0.00 | 33 | 1015.7 |
| 20260506103127 | 52 | 72 | 1.0 | 3.0 | 0.00 | 0.00 | 0.00 | 33 | 1015.7 |
| 20260506102123 | 52 | 126 | 1.0 | 7.0 | 0.00 | 0.00 | 0.00 | 33 | 1015.6 |
| 20260506101626 | 52 | 271 | 1.0 | 4.0 | 0.00 | 0.00 | 0.00 | 33 | 1015.6 |
| 20260506100619 | 52 | 238 | 1.0 | 5.0 | 0.00 | 0.00 | 0.00 | 33 | 1015.6 |
| 20260506095615 | 52 | 232 | 1.0 | 5.0 | 0.00 | 0.00 | 0.00 | 32 | 1015.6 |
| 20260506095113 | 52 | 61 | 1.0 | 8.0 | 0.00 | 0.00 | 0.00 | 32 | 1015.6 |
| 20260506094614 | 52 | 216 | 1.0 | 8.0 | 0.00 | 0.00 | 0.00 | 32 | 1015.6 |
| 20260506093612 | 52 | 210 | 2.0 | 8.0 | 0.00 | 0.00 | 0.00 | 32 | 1015.4 |
| 20260506093113 | 52 | 221 | 1.0 | 8.0 | 0.00 | 0.00 | 0.00 | 32 | 1015.3 |
| 20260506092615 | 52 | 270 | 1.0 | 6.0 | 0.00 | 0.00 | 0.00 | 32 | 1015.4 |
| 20260506092110 | 52 | 144 | 1.0 | 4.0 | 0.00 | 0.00 | 0.00 | 31 | 1015.3 |
| 20260506091612 | 53 | 266 | 2.0 | 6.0 | 0.00 | 0.00 | 0.00 | 31 | 1015.3 |
| 20260506091112 | 53 | 252 | 1.0 | 6.0 | 0.00 | 0.00 | 0.00 | 31 | 1015.4 |
| 20260506090608 | 52 | 230 | 1.0 | 8.0 | 0.00 | 0.00 | 0.00 | 31 | 1015.3 |
| 20260506090107 | 52 | 211 | 2.0 | 8.0 | 0.00 | 0.00 | 0.00 | 31 | 1015.3 |
| 20260506085606 | 52 | 277 | 1.0 | 7.0 | 0.00 | 0.00 | 0.00 | 31 | 1015.3 |
| 20260506085107 | 52 | 193 | 1.0 | 4.0 | 0.00 | 0.00 | 0.00 | 31 | 1015.3 |
| 20260506084109 | 52 | 98 | 1.0 | 4.0 | 0.00 | 0.00 | 0.00 | 31 | 1015.3 |
| 20260506083601 | 52 | 190 | 1.0 | 4.0 | 0.00 | 0.00 | 0.00 | 30 | 1015.2 |
| 20260506083055 | 53 | 198 | 1.0 | 5.0 | 0.00 | 0.00 | 0.00 | 31 | 1015.3 |
| 20260506082551 | 53 | 262 | 1.0 | 5.0 | 0.00 | 0.00 | 0.00 | 30 | 1015.3 |
| 20260506082050 | 53 | 252 | 1.0 | 5.0 | 0.00 | 0.00 | 0.00 | 31 | 1015.3 |
| 20260506081554 | 53 | 143 | 1.0 | 6.0 | 0.00 | 0.00 | 0.00 | 30 | 1015.3 |
| 20260506081047 | 53 | 259 | 1.0 | 6.0 | 0.00 | 0.00 | 0.00 | 30 | 1015.3 |
| 20260506080546 | 52 | 274 | 1.0 | 3.0 | 0.00 | 0.00 | 0.00 | 30 | 1015.4 |
| 20260506073047 | 53 | 221 | 1.0 | 7.0 | 0.00 | 0.00 | 0.00 | 29 | 1015.3 |
| 20260506072048 | 53 | 253 | 1.0 | 6.0 | 0.00 | 0.00 | 0.00 | 29 | 1015.3 |
| 20260506071548 | 53 | 288 | 1.0 | 6.0 | 0.00 | 0.00 | 0.00 | 29 | 1015.1 |
| 20260506070542 | 53 | 306 | 2.0 | 9.0 | 0.00 | 0.00 | 0.00 | 29 | 1015.1 |
| 20260506062458 | 54 | 90 | 1.0 | 10.0 | 0.00 | 0.00 | 0.00 | 28 | 1014.9 |
| 20260506061947 | 54 | 252 | 1.0 | 10.0 | 0.00 | 0.00 | 0.00 | 28 | 1014.9 |
| 20260506061442 | 54 | 161 | 2.0 | 7.0 | 0.00 | 0.00 | 0.00 | 28 | 1014.9 |
| 20260506060936 | 54 | 268 | 2.0 | 8.0 | 0.00 | 0.00 | 0.00 | 28 | 1014.9 |
| 20260506060429 | 54 | 250 | 1.0 | 8.0 | 0.00 | 0.00 | 0.00 | 28 | 1014.8 |
| 20260506051332 | 54 | 231 | 1.0 | 5.0 | 0.00 | 0.00 | 0.00 | 28 | 1014.5 |
| 20260506050823 | 54 | 176 | 2.0 | 6.0 | 0.00 | 0.00 | 0.00 | 28 | 1014.5 |
| 20260506050319 | 54 | 244 | 2.0 | 8.0 | 0.00 | 0.00 | 0.00 | 28 | 1014.5 |
| 20260506044759 | 54 | 208 | 2.0 | 7.0 | 0.00 | 0.00 | 0.00 | 29 | 1014.4 |
| 20260506044255 | 54 | 154 | 2.0 | 7.0 | 0.00 | 0.00 | 0.00 | 28 | 1014.4 |
| 20260506043242 | 54 | 249 | 2.0 | 7.0 | 0.00 | 0.00 | 0.00 | 28 | 1014.3 |
| 20260506041723 | 55 | 291 | 3.0 | 9.0 | 0.00 | 0.00 | 0.00 | 27 | 1014.2 |
| 20260506041218 | 55 | 248 | 4.0 | 8.0 | 0.00 | 0.00 | 0.00 | 27 | 1014.1 |
| 20260506040712 | 55 | 316 | 4.0 | 10.0 | 0.00 | 0.00 | 0.00 | 27 | 1014.2 |
| 20260506040206 | 55 | 238 | 4.0 | 11.0 | 0.00 | 0.00 | 0.00 | 27 | 1014.0 |
| 20260506035700 | 55 | 226 | 4.0 | 11.0 | 0.00 | 0.00 | 0.00 | 27 | 1013.8 |
| 20260506035154 | 55 | 148 | 3.0 | 10.0 | 0.00 | 0.00 | 0.00 | 26 | 1013.8 |
| 20260506034650 | 55 | 221 | 3.0 | 10.0 | 0.00 | 0.00 | 0.00 | 26 | 1013.7 |
| 20260506034141 | 55 | 240 | 3.0 | 10.0 | 0.00 | 0.00 | 0.00 | 26 | 1013.7 |
| 20260506033636 | 55 | 300 | 2.0 | 10.0 | 0.00 | 0.00 | 0.00 | 26 | 1013.6 |
| 20260506033130 | 55 | 285 | 2.0 | 13.0 | 0.00 | 0.00 | 0.00 | 26 | 1013.5 |
| 20260506032629 | 55 | 181 | 3.0 | 13.0 | 0.00 | 0.00 | 0.00 | 26 | 1013.5 |
| 20260506032129 | 56 | 207 | 3.0 | 11.0 | 0.00 | 0.00 | 0.00 | 26 | 1013.4 |
| 20260506031628 | 56 | 177 | 2.0 | 7.0 | 0.00 | 0.00 | 0.00 | 26 | 1013.3 |
| 20260506031129 | 56 | 248 | 3.0 | 9.0 | 0.00 | 0.00 | 0.00 | 26 | 1013.3 |
| 20260506030628 | 56 | 226 | 4.0 | 13.0 | 0.00 | 0.00 | 0.00 | 26 | 1013.3 |
| 20260506030126 | 56 | 257 | 4.0 | 13.0 | 0.00 | 0.00 | 0.00 | 26 | 1013.2 |
| 20260506025131 | 56 | 278 | 3.0 | 9.0 | 0.00 | 0.00 | 0.00 | 26 | 1013.0 |
| 20260506024628 | 56 | 242 | 3.0 | 11.0 | 0.00 | 0.00 | 0.00 | 26 | 1013.2 |
| 20260506024129 | 56 | 210 | 3.0 | 11.0 | 0.00 | 0.00 | 0.00 | 26 | 1013.0 |
| 20260506023630 | 56 | 219 | 3.0 | 9.0 | 0.00 | 0.00 | 0.00 | 26 | 1012.9 |
| 20260506023127 | 57 | 237 | 4.0 | 11.0 | 0.00 | 0.00 | 0.00 | 26 | 1012.8 |
| 20260506022624 | 57 | 326 | 4.0 | 11.0 | 0.00 | 0.00 | 0.00 | 25 | 1012.8 |
| 20260506022126 | 57 | 274 | 3.0 | 7.0 | 0.00 | 0.00 | 0.00 | 26 | 1012.8 |
| 20260506021125 | 57 | 258 | 4.0 | 11.0 | 0.00 | 0.00 | 0.00 | 25 | 1012.6 |
| 20260506020624 | 57 | 191 | 4.0 | 11.0 | 0.00 | 0.00 | 0.00 | 25 | 1012.4 |
| 20260506020126 | 58 | 272 | 4.0 | 12.0 | 0.00 | 0.00 | 0.00 | 25 | 1012.1 |
| 20260506015625 | 58 | 220 | 4.0 | 12.0 | 0.00 | 0.00 | 0.00 | 24 | 1012.1 |
| 20260506015125 | 58 | 242 | 4.0 | 11.0 | 0.00 | 0.00 | 0.00 | 24 | 1012.0 |
| 20260506014624 | 59 | 269 | 6.0 | 16.0 | 0.00 | 0.00 | 0.00 | 23 | 1011.8 |
| 20260506013627 | 60 | 136 | 5.0 | 11.0 | 0.00 | 0.00 | 0.00 | 22 | 1011.8 |